Voltar ao catálogo

FENGYUN 1C DEB

AtivoSSO
NORAD 37447·DEBRIS·🇨🇳 China

Lançado May 10, 1999 de Taiyuan Satellite Launch Center

Loading…

Próximas Passagens (próximas 24 horas)

TLE

AtualizadoSource: Space-Track

Época: Sep 12, 2026, 09:23 UTC

1 37447U 99025EHR 26255.39165359  .00000810  00000-0  40686-3 0  9997
2 37447  98.7636 317.2142 0039680 164.4991 195.7409 14.18893706673408

Acompanhe FENGYUN 1C DEB em tempo real com AllMySat

Download on the App Store